Back to catalog

COSMOS 831

AliveNavigationLEO
NORAD 8895·PAYLOAD·🇷🇺 Russia

Launched Jun 15, 1976 from Plesetsk Cosmodrome

Loading…

Next Passes (next 24 hours)

TLE

FreshSource: Space-Track

Epoch: Sep 14, 2026, 06:38 UTC

1 08895U 76054G   26257.27680654 -.00000018  00000-0 -19037-4 0  9997
2 08895  73.9973  89.6670 0020753 359.4906 111.1163 12.43748967281375

Track COSMOS 831 in real time with AllMySat

Download on the App Store